This is the latest recevied weather packets stored in our database for station/object DM2KB-13. If no packets are shown the sender has not sent any weather packets the latest 1 day(s).
| Time | Temp. | Humidity | Pressure | Rain* | Wind** | Luminosity | Snow |
|---|---|---|---|---|---|---|---|
| 1778005525 | 11.11° C | 95% | 1007.1 hPa | 0 mm | 0.89 m/s, 3° | 0 W/m² | - |
| 1778005224 | 11.11° C | 95% | 1007 hPa | 0 mm | 0.89 m/s, 58° | 0 W/m² | - |
| 1778004924 | 11.11° C | 95% | 1007.1 hPa | 0 mm | 0.89 m/s, 29° | 5 W/m² | - |
| 1778004624 | 11.11° C | 95% | 1007.1 hPa | 0 mm | 0.89 m/s, 20° | 5 W/m² | - |
| 1778004323 | 11.11° C | 95% | 1007.1 hPa | 0 mm | 0.89 m/s, 17° | 5 W/m² | - |
| 1778004023 | 11.11° C | 95% | 1007.1 hPa | 0 mm | 0.45 m/s, 13° | 5 W/m² | - |
| 1778003723 | 11.11° C | 95% | 1007.2 hPa | 0 mm | 0.89 m/s, 57° | 9 W/m² | - |
| 1778003423 | 11.11° C | 95% | 1007.2 hPa | 0 mm | 0.89 m/s, 15° | 11 W/m² | - |
| 1778003122 | 11.11° C | 95% | 1007.2 hPa | 0 mm | 0.89 m/s, 48° | 12 W/m² | - |
| 1778002822 | 11.11° C | 95% | 1007.2 hPa | 0 mm | 0.89 m/s, 44° | 12 W/m² | - |
| 1778002522 | 11.11° C | 95% | 1007.3 hPa | 0 mm | 0.45 m/s, 23° | 12 W/m² | - |
| 1778002221 | 11.11° C | 95% | 1007.3 hPa | 0 mm | 0.45 m/s, 2° | 14 W/m² | - |
| 1778001921 | 11.11° C | 95% | 1007.3 hPa | 0 mm | 0.89 m/s, 42° | 16 W/m² | - |
| 1778001621 | 11.11° C | 95% | 1007.3 hPa | 0 mm | 0.89 m/s, 52° | 18 W/m² | - |
| 1778001321 | 11.11° C | 95% | 1007.3 hPa | 0 mm | 0.89 m/s, 17° | 21 W/m² | - |
| 1778001020 | 11.11° C | 95% | 1007.3 hPa | 0 mm | 0.89 m/s, 42° | 23 W/m² | - |
| 1778000720 | 11.11° C | 95% | 1007.3 hPa | 0 mm | 0.89 m/s, 27° | 21 W/m² | - |
| 1778000420 | 11.11° C | 95% | 1007.3 hPa | 0 mm | 0.89 m/s, 38° | 25 W/m² | - |
| 1778000119 | 11.11° C | 95% | 1007.3 hPa | 0 mm | 0.89 m/s, 18° | 30 W/m² | - |
| 1777999819 | 11.11° C | 95% | 1007.4 hPa | 0 mm | 0.45 m/s, 336° | 32 W/m² | - |
| 1777999519 | 11.11° C | 95% | 1007.3 hPa | 0 mm | 0.45 m/s, 20° | 33 W/m² | - |
| 1777999219 | 11.11° C | 95% | 1007.3 hPa | 0 mm | 0.89 m/s, 53° | 42 W/m² | - |
| 1777998918 | 11.11° C | 95% | 1007.3 hPa | 0 mm | 0.89 m/s, 348° | 54 W/m² | - |
| 1777998618 | 11.11° C | 95% | 1007.3 hPa | 0 mm | 0.89 m/s, 76° | 56 W/m² | - |
| 1777998325 | 11.11° C | 95% | 1007.4 hPa | 0 mm | 0.89 m/s, 345° | 51 W/m² | - |
* Rain latest hour (hover to see other rain measurements)
** Current wind speed in m/s (hover to see current wind gust speed)